Weather History for KABE - May, 2014

Change the Weather History Date:

Sunday, May 4, 2014

  Actual Average Record
Temperature  
Mean Temperature 54 °F 56 °F  
Max Temperature 61 °F 68 °F 92 °F (2001)
Min Temperature 46 °F 44 °F 31 °F (1957)
Degree Days  
Heating Degree Days 11 9  
Month to date heating degree days 33 39  
Since 1 July heating degree days 6055 5609  
Cooling Degree Days 0 0  
Month to date cooling degree days 0 0  
Year to date cooling degree days 7 5  
Growing Degree Days 4 (Base 50)    
Moisture  
Dew Point 37 °F    
Average Humidity 58    
Maximum Humidity 83    
Minimum Humidity 32    
Precipitation  
Precipitation 0.00 in 0.12 in 1.20 in (1934)
Month to date precipitation 0.23 0.47  
Year to date precipitation 18.26 13.15  
Snow  
Snow 0.00 in 0.00 in 0.00 in ()
Month to date snowfall 0.0 0.0  
Since 1 July snowfall 68.1 32.9  
Snow Depth 0.00 in    
Sea Level Pressure  
Sea Level Pressure 29.78 in    
Wind  
Wind Speed 11 mph (West)    
Max Wind Speed 24 mph    
Max Gust Speed 33 mph    
Visibility 10 miles    
Events      
T = Trace of Precipitation, MM = Missing Value Source: NWS Daily Summary

Daily Weather History Graph

Daily Weather History Graph

Search for Another Location

Airport or City:

Trip Planner

Search our weather history database for the weather conditions in past years. The results will help you decide how hot, cold, wet, or windy it might be!

Date:

Astronomy

May. 04, 2014 Rise Set
Actual Time 5:56 AM EDT 8:00 PM EDT
Civil Twilight 5:26 AM EDT 8:30 PM EDT
Nautical Twilight 4:50 AM EDT 9:07 PM EDT
Astronomical Twilight 4:10 AM EDT 9:47 PM EDT
Moon 10:18 AM EDT 12:04 AM EDT
Length of Visible Light 15h 04m
Length of Day
14h 04m
Waxing Crescent, 27% of the Moon is Illuminated
May 4
Waxing Crescent
May 6
First Quarter
May 14
Full
May 21
Last Quarter
May 28
New

Hourly Weather History & Observations

Time (EDT) Temp. Dew Point Humidity Pressure Visibility Wind Dir Wind Speed Gust Speed Precip Events Conditions
12:51 AM 52.0 °F 46.0 °F 80% 29.80 in 10.0 mi SSW 5.8 mph - N/A   Overcast
1:51 AM 50.0 °F 45.0 °F 83% 29.79 in 10.0 mi WSW 5.8 mph - N/A   Scattered Clouds
2:51 AM 50.0 °F 42.1 °F 74% 29.79 in 10.0 mi SW 9.2 mph - N/A   Scattered Clouds
3:51 AM 48.9 °F 41.0 °F 74% 29.79 in 10.0 mi SW 8.1 mph - N/A   Clear
4:51 AM 48.0 °F 41.0 °F 77% 29.79 in 10.0 mi SW 8.1 mph - N/A   Mostly Cloudy
5:51 AM 48.9 °F 42.1 °F 77% 29.81 in 10.0 mi SW 5.8 mph - N/A   Overcast
6:51 AM 50.0 °F 43.0 °F 77% 29.81 in 10.0 mi SW 4.6 mph - N/A   Overcast
7:51 AM 52.0 °F 44.1 °F 74% 29.81 in 10.0 mi SW 8.1 mph - N/A   Overcast
8:51 AM 53.1 °F 41.0 °F 64% 29.80 in 10.0 mi SW 9.2 mph - N/A   Overcast
9:51 AM 55.0 °F 35.1 °F 47% 29.79 in 10.0 mi West 11.5 mph 18.4 mph N/A   Overcast
10:51 AM 55.9 °F 36.0 °F 47% 29.77 in 10.0 mi West 13.8 mph 21.9 mph N/A   Overcast
11:51 AM 55.9 °F 35.1 °F 45% 29.77 in 10.0 mi West 12.7 mph 23.0 mph N/A   Overcast
12:51 PM 55.9 °F 36.0 °F 47% 29.75 in 10.0 mi West 13.8 mph 24.2 mph N/A   Overcast
1:51 PM 57.0 °F 35.1 °F 44% 29.75 in 10.0 mi West 11.5 mph 25.3 mph N/A   Overcast
2:51 PM 59.0 °F 37.0 °F 44% 29.75 in 10.0 mi WNW 19.6 mph 29.9 mph N/A   Mostly Cloudy
3:51 PM 59.0 °F 37.0 °F 44% 29.74 in 10.0 mi West 20.7 mph 33.4 mph N/A   Scattered Clouds
4:51 PM 61.0 °F 33.1 °F 35% 29.72 in 10.0 mi West 18.4 mph 31.1 mph N/A   Clear
5:51 PM 61.0 °F 30.0 °F 31% 29.73 in 10.0 mi WNW 12.7 mph 26.5 mph N/A   Partly Cloudy
6:51 PM 59.0 °F 30.0 °F 33% 29.75 in 10.0 mi West 17.3 mph 24.2 mph N/A   Clear
7:51 PM 57.0 °F 30.0 °F 36% 29.77 in 10.0 mi West 8.1 mph 17.3 mph N/A   Clear
8:51 PM 55.9 °F 30.0 °F 37% 29.79 in 10.0 mi West 10.4 mph - N/A   Partly Cloudy
9:51 PM 54.0 °F 32.0 °F 43% 29.83 in 10.0 mi WNW 5.8 mph - N/A   Clear
10:51 PM 51.1 °F 32.0 °F 48% 29.86 in 10.0 mi WNW 6.9 mph - N/A   Clear
11:51 PM 48.0 °F 30.9 °F 52% 29.88 in 10.0 mi West 4.6 mph - N/A   Clear